798  
ASUS42 KCAE 140810  
RWRCAE  
REGIONAL WEATHER ROUNDUP  
NATIONAL WEATHER SERVICE COLUMBIA SC  
400 AM EDT FRI AUG 14 2020  
 
NOTE: "FAIR" INDICATES FEW OR NO CLOUDS BELOW 12,000 FEET WITH NO  
SIGNIFICANT WEATHER AND/OR S TO VISIBILITY
.  
 
NOT ALL STATIONS ARE QUALITY CONTROLLED BY THE NATIONAL  
WEATHER SERVICE. USE DATA WITH CAUTION...ESPECIALLY  
DEWPOINT OBSERVATIONS.  
 
SCZ001>056-GAZ040-063>065-077-140900-   
..UPSTATE SOUTH CAROLINA
 
 
 
CITY SKY/WX TMP DP RH WIND PRES REMARKS
 
ANDERSON MOCLDY 73 70 90 N5 29.98F  
LIBERTY LGT RAIN 71 71 100 CALM 29.99F  
SPARTANBURG MOCLDY 72 70 94 CALM 29.99F  
CLEMSON LGT RAIN 71 70 96 CALM 30.00F  
GREENVILLE LGT RAIN 73 72 96 NW5 30.01F  
GREENWOOD MOCLDY 70 70 100 NE3 29.99F  
GREER MOCLDY 71 69 93 W5 30.01F  
ROCK HILL CLOUDY 73 71 93 CALM 30.00S  
CHESTER CLOUDY 70 70 100 CALM 29.99F  
LAURENS PTSUNNY 70 70 100 CALM 29.99F  
 
   
..CENTRAL SOUTH CAROLINA
 
 
 
CITY SKY/WX TMP DP RH WIND PRES REMARKS
 
COLUMBIA APT MOCLDY 74 72 93 CALM 29.96F  
COLUMBIA OWENS PTCLDY 74 73 97 CALM 29.98F  
MCENTIRE ANGB CLOUDY 72 72 100 CALM 29.97F FOG  
ORANGEBURG CLOUDY 73 73 100 CALM 29.98F  
SUMTER SHAW MOCLDY 74 73 95 S2 29.97F  
NEWBERRY PTSUNNY 70 70 100 N5 30.01F  
AIKEN FAIR 74 73 95 CALM 29.99F  
BARNWELL CLOUDY 73 73 100 CALM 29.98F  
MANNING FAIR 72 72 100 CALM 29.99S  
CAMDEN CLOUDY 73 72 94 CALM 29.98F  
LANCASTER CLOUDY 72 72 100 CALM 29.98F  
WINNSBORO CLOUDY 68 68 100 CALM 29.98F  
 
   
..EASTERN AND COASTAL SOUTH CAROLINA
 
 
 
CITY SKY/WX TMP DP RH WIND PRES REMARKS
 
MYRTLE BEACH CLOUDY 74 73 97 CALM 29.97S  
N MYRTLE BCH CLOUDY 75 73 93 CALM 29.96S  
CONWAY CLOUDY 72 72 100 CALM 29.97F  
MARION CLOUDY 72 72 100 W3 29.97S  
HARTSVILLE PTSUNNY 72 72 100 CALM 29.97F FOG  
FLORENCE CLOUDY 73 72 96 SW6 29.97F  
DARLINGTON MOCLDY 73 73 100 SW3 29.97F  
CHARLESTON APT MOCLDY 75 73 93 CALM 29.96F  
MOUNT PLEASANT CLOUDY 75 75 100 CALM 29.96S  
BEAUFORT MOCLDY 77 75 93 CALM 29.96S  
HILTON HEAD N/A N/A N/A N/A MISG N/A  
 
   
..EASTERN GEORGIA
 
 
 
CITY SKY/WX TMP DP RH WIND PRES REMARKS
 
AUGUSTA BUSH F CLOUDY 74 72 93 S5 29.96S  
AUGUSTA DANIEL CLOUDY 78 71 79 N3 29.97F  
THOMSON MOCLDY 74 74 99 CALM 29.97F  
WASHINGTON DRIZZLE 73 72 94 W3 29.98F  
CLAXTON FAIR 76 74 94 CALM 29.97S  
SYLVANIA MOSUNNY 74 73 96 CALM 29.98F FOG  
STATESBORO MOCLDY 75 72 89 CALM 29.97S  
SAVANNAH PTCLDY 78 75 90 SW5 29.97S  
 
   
..SOUTHERN NORTH CAROLINA
 
 
 
CITY SKY/WX TMP DP RH WIND PRES REMARKS
 
CHARLOTTE MOCLDY 72 70 93 CALM 29.99S  
MONROE MOCLDY 73 72 96 CALM 29.97F  
ASHEVILLE MOCLDY 69 67 93 CALM 30.06F  
 

 
 
 
CLICK HERE TO GO TO PREVIOUS BULLETINS.

The Nexlab SC Page
The Nexlab GA Page Main Text Page